"Pseudo-MPEC" for CEJLWE2

Created 2026 Apr 17 11:35:13 UT using Find_Orb

Click here for an explanation of pseudo-MPECs

 
 Astrometry: 
     CEJLWE2*1C2026 04 17.30857714 14 43.224+34 52 05.84   ~4H85 20.17GVNEOCPG96
     CEJLWE2 1C2026 04 17.31375614 14 33.428+34 48 15.26   ~4H85 19.94GVNEOCPG96
     CEJLWE2 1C2026 04 17.31897914 14 23.507+34 44 22.20   ~4H85 20.45GVNEOCPG96
     CEJLWE2 1C2026 04 17.32560514 14 10.939+34 39 28.37   ~4H85       VNEOCPG96
     CEJLWE2 1C2026 04 17.35224214 13 20.554+34 19 31.30   ~4H95 19.83GVNEOCPI52
     CEJLWE2 1C2026 04 17.35387414 13 17.497+34 18 17.03   ~4H95       VNEOCPI52
     CEJLWE2 1C2026 04 17.35552014 13 14.315+34 17 02.90   ~4H95       VNEOCPI52
     CEJLWE2 1C2026 04 17.35718114 13 11.190+34 15 47.56   ~4H95 19.98GVNEOCPI52
     CEJLWE2 1C2026 04 17.45259414 10 11.514+33 02 15.25   ~4HBK 19.54GVNEOCPI52
     CEJLWE2 1C2026 04 17.45423114 10 08.447+33 00 57.96   ~4HBK 19.48GVNEOCPI52
     CEJLWE2 1C2026 04 17.45587814 10 05.365+32 59 40.20   ~4HBK 19.72GVNEOCPI52
     CEJLWE2 1C2026 04 17.45751314 10 02.341+32 58 22.87   ~4HBK 19.96GVNEOCPI52

Station data:
(G96) Mt. Lemmon Survey  (N32.442729 W110.788720)  US/Arizona.  Observer E.
   J. Christensen. Measurers T. Beuden, V. F. Carvajal, D. Fay, J. B.
   Fazekas, D. C. Fuls, A. R. Gibbs, A. D. Grauer, H. Gröller, J. K. Hogan,
   R. A. Kowalski, S. M. Larson, G. J. Leonard, D. Rankin, R. L. Seaman, F.
   C. Shelly, K. W. Wierzchoś. 1.5-m reflector + 10K CCD.
(I52) Steward Observatory, Mt. Lemmon Station  (N32.442570 W110.788920)
   US/Arizona. Measurers T. Beuden, V. F. Carvajal, D. Fay, J. B. Fazekas, D.
   C. Fuls, A. R. Gibbs, A. D. Grauer, H. Gröller, J. K. Hogan, R. A.
   Kowalski, S. M. Larson, G. J. Leonard, D. Rankin, R. L. Seaman, F. C.
   Shelly, K. W. Wierzchoś. 1.0-m prime focus + CCD.

Orbital elements:  CEJLWE2
   Perihelion 2026 Mar 31.519355 +/- 1.43 TT = 12:27:52.2 (JD 2461131.019355)
Epoch 2026 Apr 17.0 TT = JDT 2461147.5   Earth MOID: 0.0323      AutoNEOCP
M   6.348556248 +/- 1.3             (J2000 ecliptic)
n   0.385212845 +/- 0.0479          Peri.  157.832143 +/- 1.4
a   1.870691653 +/- 0.155           Node    28.975733 +/- 0.028
e   0.45839393 +/- 0.0436           Incl.   33.383203 +/- 1.3
P   2.559/934.531d         H 25.49  G  0.15   U 10.7
q 1.013177940 +/- 0.00273    Q 2.728205366 +/- 0.308
From 12 observations 2026 Apr. 17 (3.6 hr); mean residual 0".34
Residuals in arcseconds: 
260417 G96  .21+  .59+    260417 I52  .14+  .25+    260417 I52  .05+  .04+    
260417 G96  .25+  .23-    260417 I52  .55+  .23-    260417 I52  .08-  .00     
260417 G96  .20-  1.0-    260417 I52  .27-  .11+    260417 I52  .17-  .01+    
260417 G96  .50-  .60+    260417 I52  .03-  .02-    260417 I52  .18+  .07-    

Ephemerides (geocentric):
Date (UTC) HH   RA             Dec           delta  r     elong  mag " sig PA
---- --------  ------------   ------------  ------ ------ -----  --- --------
2026 04 17 12  14 08 57.107   +32 25 33.50  .03820 1.0319 136.6 20.1 9.98  75
2026 04 17 13  14 07 42.144   +31 52 24.26  .03796 1.0320 137.2 20.1 12.9  73
2026 04 17 14  14 06 27.154   +31 18 47.25  .03773 1.0321 137.8 20.0 16.1  70
2026 04 17 15  14 05 12.142   +30 44 42.47  .03750 1.0322 138.4 20.0 19.5  68
2026 04 17 16  14 03 57.111   +30 10 09.96  .03728 1.0323 139.0 20.0 23.2  66
2026 04 17 17  14 02 42.067   +29 35 09.77  .03706 1.0324 139.6 20.0 27.0  64
2026 04 17 18  14 01 27.015   +28 59 42.00  .03684 1.0325 140.2 19.9 31.2  63
2026 04 17 19  14 00 11.958   +28 23 46.76  .03663 1.0326 140.8 19.9 35.6  61
2026 04 17 20  13 58 56.903   +27 47 24.21  .03643 1.0327 141.4 19.9 40.4  60
2026 04 17 21  13 57 41.853   +27 10 34.53  .03623 1.0328 142.1 19.8 45.4  58
2026 04 17 22  13 56 26.813   +26 33 17.94  .03603 1.0328 142.7 19.8 50.7  57
2026 04 17 23  13 55 11.788   +25 55 34.70  .03584 1.0329 143.3 19.8 56.3  56
2026 04 18 00  13 53 56.783   +25 17 25.09  .03566 1.0330 144.0 19.8 62.2  54
2026 04 18 01  13 52 41.802   +24 38 49.46  .03548 1.0331 144.6 19.7 68.5  53
2026 04 18 02  13 51 26.851   +23 59 48.16  .03530 1.0332 145.3 19.7 75.0  52
2026 04 18 03  13 50 11.933   +23 20 21.61  .03514 1.0333 145.9 19.7 82.0  51
2026 04 18 04  13 48 57.054   +22 40 30.25  .03497 1.0334 146.6 19.6 89.2  50
2026 04 18 05  13 47 42.217   +22 00 14.57  .03482 1.0335 147.3 19.6 96.8  49
2026 04 18 06  13 46 27.429   +21 19 35.09  .03466 1.0336 148.0 19.6  105  48
2026 04 18 07  13 45 12.693   +20 38 32.39  .03452 1.0337 148.6 19.6  113  48
2026 04 18 08  13 43 58.014   +19 57 07.07  .03438 1.0338 149.3 19.5  122  47
2026 04 18 09  13 42 43.396   +19 15 19.79  .03425 1.0339 150.0 19.5  130  46
2026 04 18 10  13 41 28.845   +18 33 11.24  .03412 1.0340 150.7 19.5  140  45
2026 04 18 11  13 40 14.365   +17 50 42.15  .03400 1.0341 151.4 19.5  149  45
2026 04 18 12  13 38 59.959   +17 07 53.30  .03388 1.0342 152.0 19.4  159  44
2026 04 18 13  13 37 45.634   +16 24 45.50  .03377 1.0343 152.7 19.4  170  43
2026 04 18 14  13 36 31.392   +15 41 19.60  .03367 1.0344 153.4 19.4  180  43
2026 04 18 15  13 35 17.240   +14 57 36.49  .03357 1.0344 154.1 19.3  191  42
2026 04 18 16  13 34 03.180   +14 13 37.10  .03348 1.0345 154.8 19.3  202  42
2026 04 18 17  13 32 49.218   +13 29 22.38  .03340 1.0346 155.4 19.3  214  41
2026 04 18 18  13 31 35.358   +12 44 53.34  .03332 1.0347 156.1 19.3  226  41
2026 04 18 19  13 30 21.604   +12 00 11.00  .03325 1.0348 156.8 19.2  238  40
2026 04 18 20  13 29 07.960   +11 15 16.41  .03318 1.0349 157.5 19.2  250  40
2026 04 18 21  13 27 54.430   +10 30 10.66  .03313 1.0350 158.1 19.2  263  39
2026 04 18 22  13 26 41.020   +09 44 54.86  .03308 1.0351 158.8 19.2  276  39
2026 04 18 23  13 25 27.733   +08 59 30.15  .03303 1.0352 159.4 19.2  289  38
2026 04 19 00  13 24 14.572   +08 13 57.67  .03299 1.0353 160.0 19.1  303  38
2026 04 19 01  13 23 01.543   +07 28 18.59  .03296 1.0354 160.6 19.1  316  38
2026 04 19 02  13 21 48.649   +06 42 34.11  .03294 1.0355 161.2 19.1  330  37
2026 04 19 03  13 20 35.894   +05 56 45.42  .03292 1.0356 161.8 19.1  344  37
2026 04 19 04  13 19 23.282   +05 10 53.74  .03291 1.0357 162.4 19.1  358  37
2026 04 19 05  13 18 10.817   +04 25 00.26  .03291 1.0358 163.0 19.0  372  36
2026 04 19 06  13 16 58.503   +03 39 06.23  .03291 1.0359 163.5 19.0  387  36
2026 04 19 07  13 15 46.344   +02 53 12.84  .03292 1.0360 164.0 19.0  401  36
2026 04 19 08  13 14 34.343   +02 07 21.32  .03294 1.0361 164.5 19.0  416  36
2026 04 19 09  13 13 22.504   +01 21 32.88  .03296 1.0362 164.9 19.0  431  35
2026 04 19 10  13 12 10.831   +00 35 48.73  .03299 1.0363 165.3 19.0  445  35
2026 04 19 11  13 10 59.326   -00 09 49.96  .03303 1.0364 165.7 19.0  460  35